Location: Newark
(7.0858°N, 171.3717°E)
Time: 16:16:35
(UTC+00:00)

Transit 2A - Pass Details

Date: 29 November 2020
Orbit: 598 x 960 km, 66.7° (Epoch: 20 January)

Event Time Altitude Azimuth Distance (km) Brightness Sun altitude
Rises 03:28:20 0° 170° (S) 3,540 9.7 36.3°
Reaches altitude 10° 03:31:27 10° 155° (SSE) 2,638 9.0 35.6°
Maximum altitude 03:35:58 21° 108° (ESE) 1,992 8.0 34.7°
Drops below altitude 10° 03:40:33 10° 61° (ENE) 2,685 8.4 33.7°
Sets 03:43:44 0° 46° (NE) 3,622 9.0 33.0°
